sat.trackr.live / text

‹ back to catalog

STARLINK-5937

NORAD 56922 · 2023-083AY

PAYLOAD ACTIVE UNKNOWN

§ Identity

Operator
Country
US
Launch date
2023-06-12
Launch site
AFETR
Launch vehicle
Mass (kg)
RCS (m²)

Purposes: comms

External: N2YO · Heavens-Above · Gunter

§ Orbital elements

Epoch: 2026-09-19T17:57:54.535968Z

Period
94.27 min
Inclination
43.0053°
Eccentricity
0.0001731
Mean motion
15.27577648 rev/d
Perigee alt
481.9 km
Apogee alt
484.2 km
Semi-major
6,861.2 km
B*
1.4129e-5
RAAN
55.0147°
Arg perigee
272.0476°
Mean anomaly
88.0177°
Rev number
18,147

§ Raw data

STARLINK-59371 56922U 23083AY  26262.74854787  .00000126  00000+0  14129-4 0  99972 56922  43.0053  55.0147 0001731 272.0476  88.0177 15.27577648181477

JSON: /api/v1/satellites/56922 · /tle

For live sub-satellite position, see the globe view (requires WebGL).

§ Visibility from observer

Set your observer location to see the next 7 days of passes ≥ 10°. The values pass through the URL so the page stays shareable.

No JS? Fill the form by hand. The geolocation button needs JavaScript.